Victoria, TX

7:06 AM CST on December 09, 2019 (GMT -0600)
Victoria Regional

Weather History for KVCT - October, 2019

Change the Weather History Date:

Tuesday, October 22, 2019

  Actual Average Record
Temperature  
Mean Temperature 66 °F 71 °F  
Max Temperature 82 °F 82 °F 101 °F (1926)
Min Temperature 48 °F 59 °F 40 °F (1910)
Degree Days  
Heating Degree Days 0 1  
Month to date heating degree days 0 7  
Since 1 July heating degree days 0 8  
Cooling Degree Days 0 7  
Month to date cooling degree days 271 193  
Year to date cooling degree days 3536 2991  
Growing Degree Days 16 (Base 50)    
Moisture  
Dew Point 45 °F    
Average Humidity 54    
Maximum Humidity 89    
Minimum Humidity 18    
Precipitation  
Precipitation 0.00 in 0.16 in 2.38 in (1954)
Month to date precipitation 1.73 3.39  
Year to date precipitation 21.09 34.42  
Snow  
Snow 0.00 in 0.00 in 0.00 in (2002)
Month to date snowfall 0.0 0.0  
Since 1 July snowfall 0.0 0.0  
Since 1 September snowfall 0.0 0.0  
Snow Depth 0.00 in    
Sea Level Pressure  
Sea Level Pressure 30.12 in    
Wind  
Wind Speed 7 mph ()    
Max Wind Speed 17 mph    
Max Gust Speed 22 mph    
Visibility 9.0 miles    
Events      
T = Trace of Precipitation, MM = Missing Value Source: Averaged Metar Reports

Daily Weather History Graph

Daily Weather History Graph

Search for Another Location

Airport or City:

Astronomy

Oct. 22, 2019 Rise Set
Actual Time 7:32 AM CDT 6:50 PM CDT
Civil Twilight 7:08 AM CDT 7:14 PM CDT
Nautical Twilight 6:41 AM CDT 7:42 PM CDT
Astronomical Twilight 6:13 AM CDT 8:10 PM CDT
Moon 1:23 AM CDT (10/22) 3:24 PM CDT (10/22)
Length of Visible Light 12h 05m
Length of Day
11h 17m
Last Quarter, 37% of the Moon is Illuminated
Oct 22
Last Quarter
Oct 27
New
Nov 4
First Quarter
Nov 12
Full
Nov 19
Last Quarter

Hourly Weather History & Observations

Time (CDT) Temp. Dew Point Humidity Pressure Visibility Wind Dir Wind Speed Gust Speed Precip Events Conditions
12:51 AM 57.0 °F 50.0 °F 77% 30.04 in 6.0 mi NNE 8.1 mph - N/A   Haze
1:51 AM 55.9 °F 50.0 °F 80% 30.06 in 6.0 mi NE 9.2 mph - N/A   Haze
2:51 AM 55.9 °F 48.9 °F 77% 30.05 in 7.0 mi NNE 9.2 mph - N/A   Clear
3:51 AM 54.0 °F 48.9 °F 83% 30.06 in 7.0 mi NE 6.9 mph - N/A   Clear
4:51 AM 54.0 °F 48.0 °F 80% 30.07 in 7.0 mi NE 6.9 mph - N/A   Clear
5:51 AM 53.1 °F 48.0 °F 83% 30.09 in 7.0 mi NNE 6.9 mph - N/A   Clear
6:51 AM 50.0 °F 46.0 °F 86% 30.12 in 7.0 mi North 4.6 mph - N/A   Clear
7:51 AM 50.0 °F 46.9 °F 89% 30.13 in 10.0 mi NNW 4.6 mph - N/A   Clear
8:51 AM 57.0 °F 51.1 °F 81% 30.15 in 10.0 mi North 3.5 mph - N/A   Partly Cloudy
9:51 AM 66.0 °F 50.0 °F 56% 30.18 in 10.0 mi ENE 9.2 mph - N/A   Clear
10:51 AM 72.0 °F 44.1 °F 37% 30.20 in 10.0 mi ENE 10.4 mph - N/A   Clear
11:51 AM 78.1 °F 43.0 °F 29% 30.19 in 10.0 mi NE 9.2 mph - N/A   Clear
12:51 PM 82.0 °F 41.0 °F 23% 30.18 in 10.0 mi ENE 12.7 mph - N/A   Clear
1:51 PM 82.9 °F 36.0 °F 19% 30.14 in 10.0 mi ENE 12.7 mph - N/A   Clear
2:51 PM 82.9 °F 36.0 °F 19% 30.12 in 10.0 mi NE 15.0 mph 20.7 mph N/A   Clear
3:51 PM 82.0 °F 37.9 °F 21% 30.10 in 10.0 mi ENE 11.5 mph - N/A   Clear
4:51 PM 81.0 °F 39.0 °F 22% 30.09 in 10.0 mi ENE 11.5 mph - N/A   Clear
5:51 PM 78.1 °F 37.9 °F 24% 30.10 in 10.0 mi East 9.2 mph - N/A   Clear
6:51 PM 70.0 °F 43.0 °F 38% 30.11 in 10.0 mi East 8.1 mph - N/A   Clear
7:51 PM 64.9 °F 45.0 °F 48% 30.11 in 10.0 mi East 9.2 mph - N/A   Clear
8:51 PM 63.0 °F 46.0 °F 54% 30.12 in 10.0 mi ESE 8.1 mph - N/A   Clear
9:51 PM 61.0 °F 46.0 °F 58% 30.12 in 10.0 mi ESE 6.9 mph - N/A   Clear
11:51 PM 59.0 °F 46.0 °F 62% 30.13 in 10.0 mi East 8.1 mph - N/A   Clear